Weather History for KDBQ - January, 2013

Change the Weather History Date:

Sunday, January 13, 2013

  Actual Average Record
Temperature  
Mean Temperature 14 °F 19 °F  
Max Temperature 19 °F 26 °F 51 °F (1894)
Min Temperature 8 °F 11 °F -22 °F (1916)
Degree Days  
Heating Degree Days 51 46  
Month to date heating degree days 558 598  
Since 1 July heating degree days 3238 3408  
Cooling Degree Days 0 0  
Month to date cooling degree days 0 0  
Year to date cooling degree days 0 0  
Moisture  
Dew Point 5 °F    
Average Humidity 74    
Maximum Humidity 80    
Minimum Humidity 67    
Precipitation  
Precipitation 0.00 in 0.04 in 1.11 in (1979)
Month to date precipitation 0.26 0.50  
Year to date precipitation 0.26 0.50  
Snow  
Snow 0.00 in 0.40 in - ()
Month to date snowfall T 4.2  
Since 1 July snowfall 19.2 18.8  
Snow Depth T in    
Sea Level Pressure  
Sea Level Pressure 30.11 in    
Wind  
Wind Speed 12 mph (WNW)    
Max Wind Speed 22 mph    
Max Gust Speed 28 mph    
Visibility 10 miles    
Events      
T = Trace of Precipitation, MM = Missing Value Source: NWS Daily Summary

Daily Weather History Graph

Daily Weather History Graph

Search for Another Location

Airport or City:

Trip Planner

Search our weather history database for the weather conditions in past years. The results will help you decide how hot, cold, wet, or windy it might be!

Date:

Astronomy

Jan. 13, 2013 Rise Set
Actual Time 7:30 AM CST 4:53 PM CST
Civil Twilight 6:59 AM CST 5:24 PM CST
Nautical Twilight 6:24 AM CST 5:59 PM CST
Astronomical Twilight 5:50 AM CST 6:33 PM CST
Moon 8:25 AM CST (1/13) 7:36 PM CST (1/13)
Length of Visible Light 10h 25m
Length of Day
9h 23m
Waxing Crescent, 5% of the Moon is Illuminated
Jan 13
Waxing Crescent
Jan 18
First Quarter
Jan 26
Full
Feb 3
Last Quarter
Feb 10
New

Hourly Weather History & Observations

Time (CST) Temp. Windchill Dew Point Humidity Pressure Visibility Wind Dir Wind Speed Gust Speed Precip Events Conditions
12:53 AM 17.1 °F 2.5 °F 10.0 °F 74% 30.00 in 10.0 mi NNW 15.0 mph - N/A   Scattered Clouds
1:53 AM 16.0 °F 3.6 °F 9.0 °F 74% 30.03 in 10.0 mi NW 10.4 mph - N/A   Scattered Clouds
2:01 AM 15.8 °F 1.4 °F 8.6 °F 73% 29.96 in 10.0 mi NNW 13.8 mph - N/A   Mostly Cloudy
2:09 AM 15.8 °F 1.4 °F 8.6 °F 73% 29.95 in 10.0 mi NNW 13.8 mph - N/A   Scattered Clouds
2:51 AM 15.8 °F 3.4 °F 8.6 °F 73% 29.98 in 10.0 mi NW 10.4 mph - N/A   Mostly Cloudy
2:53 AM 15.1 °F 2.5 °F 8.1 °F 74% 30.03 in 10.0 mi NNW 10.4 mph - N/A   Overcast
3:49 AM 14.0 °F 0.5 °F 6.8 °F 73% 29.97 in 10.0 mi NNW 11.5 mph - N/A   Scattered Clouds
3:53 AM 12.9 °F -0.2 °F 6.1 °F 74% 30.03 in 10.0 mi NNW 10.4 mph - N/A   Partly Cloudy
4:53 AM 12.0 °F -0.4 °F 5.0 °F 73% 30.04 in 10.0 mi NW 9.2 mph - N/A   Clear
5:53 AM 12.0 °F 0.5 °F 3.9 °F 70% 30.07 in 10.0 mi NW 8.1 mph - N/A   Overcast
6:53 AM 10.9 °F -2.6 °F 3.0 °F 70% 30.08 in 10.0 mi NW 10.4 mph - N/A   Scattered Clouds
7:53 AM 10.9 °F -1.8 °F 3.9 °F 73% 30.12 in 10.0 mi NW 9.2 mph - N/A   Scattered Clouds
8:53 AM 10.9 °F -4.1 °F 3.9 °F 73% 30.14 in 10.0 mi WNW 12.7 mph - N/A   Mostly Cloudy
9:53 AM 10.9 °F -4.1 °F 3.9 °F 73% 30.12 in 10.0 mi NW 12.7 mph - N/A   Overcast
10:04 AM 10.4 °F -5.4 °F 3.2 °F 73% 30.06 in 10.0 mi NW 13.8 mph - N/A   Overcast
10:53 AM 12.0 °F -2.0 °F 3.9 °F 70% 30.11 in 10.0 mi West 11.5 mph - N/A   Mostly Cloudy
11:12 AM 12.2 °F -1.0 °F 3.2 °F 67% 30.05 in 10.0 mi NW 10.4 mph - N/A   Scattered Clouds
11:21 AM 12.2 °F -2.5 °F 3.2 °F 67% 30.05 in 10.0 mi West 12.7 mph - N/A   Mostly Cloudy
11:53 AM 12.9 °F -2.8 °F 3.9 °F 67% 30.11 in 10.0 mi WNW 15.0 mph - N/A   Mostly Cloudy
12:03 PM 12.2 °F -3.1 °F 3.2 °F 67% 30.05 in 10.0 mi West 13.8 mph - N/A   Scattered Clouds
12:53 PM 12.9 °F -4.4 °F 3.9 °F 67% 30.11 in 10.0 mi West 18.4 mph - N/A   Clear
1:17 PM 12.2 °F -4.3 °F 5.0 °F 73% 30.04 in 10.0 mi WNW 16.1 mph - N/A   Mostly Cloudy
1:31 PM 12.2 °F -6.3 °F 3.2 °F 67% 30.03 in 10.0 mi WNW 20.7 mph - N/A   Scattered Clouds
1:53 PM 14.0 °F -3.0 °F 5.0 °F 67% 30.09 in 10.0 mi WNW 18.4 mph - N/A   Mostly Cloudy
2:22 PM 12.2 °F -6.3 °F 3.2 °F 67% 30.04 in 10.0 mi WNW 20.7 mph 26.5 mph N/A   Scattered Clouds
2:53 PM 14.0 °F -2.0 °F 5.0 °F 67% 30.12 in 10.0 mi WNW 16.1 mph - N/A   Mostly Cloudy
3:53 PM 12.9 °F -1.6 °F 3.9 °F 67% 30.16 in 10.0 mi WNW 12.7 mph - N/A   Overcast
4:53 PM 12.0 °F -3.4 °F 3.9 °F 70% 30.19 in 10.0 mi West 13.8 mph - N/A   Overcast
5:21 PM 12.2 °F -2.5 °F 3.2 °F 67% 30.14 in 10.0 mi WNW 12.7 mph - N/A   Partly Cloudy
5:53 PM 12.0 °F -4.0 °F 3.9 °F 70% 30.22 in 10.0 mi WNW 15.0 mph - N/A   Mostly Cloudy
6:42 PM 10.4 °F -6.6 °F 3.2 °F 73% 30.15 in 10.0 mi WNW 16.1 mph - N/A   Partly Cloudy
6:53 PM 10.9 °F -3.4 °F 3.0 °F 70% 30.24 in 10.0 mi West 11.5 mph - N/A   Clear
7:53 PM 10.0 °F -5.9 °F 3.0 °F 73% 30.25 in 10.0 mi WNW 13.8 mph - N/A   Clear
8:53 PM 10.0 °F -2.9 °F 3.0 °F 73% 30.27 in 10.0 mi WNW 9.2 mph - N/A   Clear
9:53 PM 10.0 °F -4.5 °F 3.0 °F 73% 30.27 in 10.0 mi NW 11.5 mph - N/A   Clear
10:53 PM 9.0 °F -5.1 °F 3.0 °F 77% 30.27 in 10.0 mi NW 10.4 mph - N/A   Clear
11:53 PM 8.1 °F -2.0 °F 3.0 °F 80% 30.31 in 10.0 mi WNW 5.8 mph - N/A   Clear